Regional Weather Roundup
Issued by NWS Upton, NY

Current Version | Previous Version | Graphics & Text | Print | Product List | Glossary Off
Versions: 1 2 3 4 5 6 7 8 9 10 11 12 13 14 15 16 17 18 19 20 21 22 23 24 25 26 27 28 29 30 31 32 33 34 35 36 37 38 39 40 41 42 43 44 45 46 47 48 49 50

000
ASUS41 KOKX 290304
RWROKX

REGIONAL WEATHER ROUNDUP
NATIONAL WEATHER SERVICE NEW YORK NY
1100 PM EDT FRI AUG 28 2015

NOTE: "FAIR" INDICATES FEW OR NO CLOUDS BELOW 12,000 FEET WITH NO
SIGNIFICANT WEATHER AND/OR OBSTRUCTIONS TO VISIBILITY.

NYZ071-072-176-178-NJZ106-104-290400-
NEW YORK CITY METRO AREA


CITY           SKY/WX    TMP DP  RH WIND       PRES   REMARKS
CENTRAL PARK   CLEAR     73  52  47 CALM      30.22S
LAGUARDIA APRT PTCLDY    75  54  47 N3        30.19R
KENNEDY INTL   PTCLDY    74  61  63 CALM      30.20S
NEWARK/LIBERTY PTCLDY    72  53  51 NE5       30.19S
BRNX BOT. GARD   N/A     68  54  60 E2        30.20S
TETERBORO      CLEAR     71  51  49 CALM      30.19R
$$

NYZ177-179-078>081-290400-
LONG ISLAND NEW YORK

CITY           SKY/WX    TMP DP  RH WIND       PRES   REMARKS
FARMINGDALE    CLOUDY    72  61  68 CALM      30.20R
ISLIP          MOCLDY    69  58  67 CALM      30.19R
SHIRLEY        CLEAR     66  57  72 W5        30.20R
WESTHAMPTON    CLEAR     57  52  83 CALM      30.21R
MONTAUK POINT    N/A     71  63  75 SW5       30.20R
$$

NYZ052-065-067-290400-
HUDSON VALLEY

CITY           SKY/WX    TMP DP  RH WIND       PRES   REMARKS
WHITE PLAINS   CLEAR     65  56  72 CALM      30.20S
NEWBURGH       PTCLDY    64  59  82 CALM      30.22
MONTGOMERY     CLEAR     60  55  83 CALM      30.21R
POUGHKEEPSIE   CLEAR     62  57  83 CALM      30.19R
ALBANY         PTCLDY    62  53  72 CALM      30.20R
$$

NJZ001-105-106-008-010-013-015-019>022-104-290400-
NEW JERSEY

CITY           SKY/WX    TMP DP  RH WIND       PRES   REMARKS
NEWARK/LIBERTY PTCLDY    72  53  51 NE5       30.19S
TETERBORO      CLEAR     71  51  49 CALM      30.19R
CALDWELL       CLEAR     64  54  69 CALM      30.21R
MORRISTOWN     CLEAR     55  50  82 CALM      30.21R
SOMERVILLE     CLEAR     60  56  86 NW3       30.19R
SUSSEX         CLEAR     56  54  93 CALM      30.22R
ANDOVER          N/A     57  56  96 CALM      30.22S
TRENTON        CLEAR     66  56  70 CALM      30.20R
MILLVILLE      CLEAR     61  58  90 CALM      30.19S
ATLANTIC CITY  CLEAR     69  59  70 S5        30.20S
WRIGHTSTOWN    CLEAR     62  58  86 E1        30.17S
TOMS RIVER     CLEAR     57  54  88 CALM      30.21R
BELMAR         CLEAR     66  54  63 W3        30.20S
$$

PAZ047>061-062-071-290400-
EASTERN PENNSYLVANIA

CITY           SKY/WX    TMP DP  RH WIND       PRES   REMARKS
PHILADELPHIA   CLEAR     73  58  59 SE3       30.19S
ALLENTOWN      CLEAR     62  56  80 CALM      30.21R
SCRANTON       CLEAR     62  54  74 E8        30.22S
$$

CTZ002-004>006-009-010-012-RIZ004-006-007-MAZ004-011-015-290400-
SOUTHERN NEW ENGLAND
 IN CT

CITY           SKY/WX    TMP DP  RH WIND       PRES   REMARKS
BRADLEY INTL   PTCLDY    65  55  70 CALM      30.18R
HARTFORD       MOCLDY    66  61  84 CALM      30.19R
DANBURY        CLEAR     58  53  84 SW5       30.22R
WTRBRY/OXFORD  CLEAR     57  48  72 CALM      30.23R
BRIDGEPORT     CLEAR     69  57  65 CALM      30.19R
MERIDEN        CLEAR     61  56  83 CALM      30.20R
NEW HAVEN      CLEAR     63  57  81 CALM      30.20R
CHESTER        NOT AVBL
GROTON         PTCLDY    62  58  86 CALM      30.18R
WILLIMANTIC    CLEAR     62  58  86 CALM      30.20R

 IN RI

CITY           SKY/WX    TMP DP  RH WIND       PRES   REMARKS
PROVIDENCE     PTCLDY    67  56  67 W7        30.18R
BLOCK ISLAND   CLEAR     68  64  88 W9        30.19R
WESTERLY       CLEAR     64  61  90 CALM      30.19R

 IN MA

CITY           SKY/WX    TMP DP  RH WIND       PRES   REMARKS
BOSTON         PTCLDY    71  59  65 SW7       30.16R
WORCESTER      CLEAR     62  53  72 W8        30.21R
WESTFIELD      PTCLDY    60  58  92 CALM      30.19R
PROVINCETOWN   PTCLDY    66  57  72 SW7       30.17R
NANTUCKET      CLEAR     63  60  90 S5        30.18R
$$

ANZ330-335-338-340-345-350-353-355-290400-
COASTAL MARINE OBSERVATIONS


STATION/POSITION TIME  SKY/WX   TEMP    WIND        PRES    VSBY  WAVE
                                AIR SEA DIR/SP/G                  HT/PER
                 (UTC)          (F)     (DEG/KT/KT) (MB)    (MI)  (FT/S)
NY HARB ENTRANCE 0150            74 76  220/ 14/ 16 1021.7          3/10
4S FIRE IS       NOT AVBL
20S FIRE ISLAND  0150            73 75  220/  6/  8 1022.2          3/11
GREAT SOUTH BAY  NOT AVBL
23SW MTP         0250            72 73  260/  8/  8 1022.1          3/11
HUDSON CANYON    NOT AVBL
KINGS POINT      NOT AVBL
EXECUTION ROCKS  0200            74     280/  4/  4   N/A
CENTRAL LI SOUND NOT AVBL
EASTERN LI SOUND 0200            71 71  240/  6/  8   N/A
ROBBINS REEF     NOT AVBL
$$


>>>>>>>>>>>>>>>>>>>>>>>>>>>> KEY <<<<<<<<<<<<<<<<<<<<<<<<<<<
>                                                          <
>     SKY/WX - SKY CONDITION/PRESENT WEATHER               <
>     TMP    - TEMPERATURE IN FAHRENHEIT                   <
>     DP     - DEWPOINT IN FAHRENHEIT                      <
>     RH     - RELATIVE HUMIDITY IN PERCENT                <
>     WIND   - DIRECTION AND SPEED IN MPH                  <
>     PRES   - MEAN SEA LEVEL PRESSURE IN INCHES OF HG     <
>     WCI    - WIND CHILL INDEX                            <
>     VSB    - VISIBILITY IN MILES                         <
>     HX     - HEAT INDEX                                  <
>     TC     - TEMPERATURE IN CELSIUS                      <
>     VRB    - VARIABLE WIND DIRECTION                     <
>                                                          <
>>>>>>>>>>>>>>>>>>>>>>>>>>>> KEY <<<<<<<<<<<<<<<<<<<<<<<<<<<




USA.gov is the U.S. government's official web portal to all federal, state and local government web resources and services.